Weather History for Sparta, WI

Change the Weather History Date:

Saturday, January 12, 2013

  Actual Average Record
Temperature  
Mean Temperature 32 °F -  
Max Temperature 48 °F 21 °F 48 °F (2006)
Min Temperature 15 °F 1 °F -32 °F (1979)
Degree Days  
Heating Degree Days 34    
Moisture  
Dew Point 20 °F    
Average Humidity 71    
Maximum Humidity 87    
Minimum Humidity 63    
Precipitation  
Precipitation 0.00 in - - ()
Sea Level Pressure  
Sea Level Pressure 29.83 in    
Wind  
Wind Speed 11 mph (WSW)    
Max Wind Speed 17 mph    
Max Gust Speed 31 mph    
Visibility 10 miles    
Events Snow    
Averages and records for this station are not official NWS values.
T = Trace of Precipitation, MM = Missing Value Source: NWS Daily Summary

Daily Weather History Graph

Daily Weather History Graph

Search for Another Location

Airport:

Trip Planner

Search our weather history database for the weather conditions in past years. The results will help you decide how hot, cold, wet, or windy it might be!

Date:

Astronomy

Jan. 12, 2013 Rise Set
Actual Time 7:35 AM CST 4:47 PM CST
Civil Twilight 7:03 AM CST 5:19 PM CST
Nautical Twilight 6:27 AM CST 5:55 PM CST
Astronomical Twilight 5:52 AM CST 6:30 PM CST
Moon 7:51 AM CST (1/12) 6:21 PM CST (1/12)
Length of Visible Light 10h 16m
Length of Day
9h 12m
New Moon, 1% of the Moon is Illuminated
Jan 12
New Moon
Jan 18
First Quarter
Jan 26
Full
Feb 3
Last Quarter
Feb 10
New

Hourly Weather History & Observations

Time (CST) Temp. Windchill Dew Point Humidity Pressure Visibility Wind Dir Wind Speed Gust Speed Precip Events Conditions
12:15 AM 44.6 °F 39.2 °F 41.0 °F 87% 29.48 in 10.0 mi South 10.4 mph 16.1 mph N/A   Clear
12:35 AM 44.6 °F 40.2 °F 41.0 °F 87% 29.49 in 10.0 mi South 8.1 mph 16.1 mph N/A   Clear
12:55 AM 44.6 °F 39.2 °F 41.0 °F 87% 29.48 in 10.0 mi South 10.4 mph 16.1 mph N/A   Clear
1:15 AM 44.6 °F 39.7 °F 41.0 °F 87% 29.49 in 10.0 mi South 9.2 mph - N/A   Clear
1:35 AM 46.4 °F 41.5 °F 41.0 °F 81% - 10.0 mi South 10.4 mph - N/A   Clear
1:55 AM 46.4 °F 41.5 °F 41.0 °F 81% 29.49 in 10.0 mi SSW 10.4 mph 16.1 mph N/A   Clear
2:15 AM 46.4 °F 42.4 °F 41.0 °F 81% 29.50 in 10.0 mi SSW 8.1 mph 17.3 mph N/A   Clear
2:35 AM 46.4 °F 41.9 °F 41.0 °F 81% 29.50 in 10.0 mi SSW 9.2 mph - N/A   Clear
2:55 AM 46.4 °F 42.4 °F 41.0 °F 81% 29.50 in 10.0 mi SSW 8.1 mph - N/A   Mostly Cloudy
3:15 AM 48.2 °F - 37.4 °F 66% 29.52 in 10.0 mi WSW 12.7 mph 20.7 mph N/A   Mostly Cloudy
3:35 AM 48.2 °F - 37.4 °F 66% 29.52 in 10.0 mi SW 13.8 mph 29.9 mph N/A   Mostly Cloudy
3:55 AM 46.4 °F 40.1 °F 37.4 °F 71% 29.53 in 10.0 mi SW 15.0 mph 25.3 mph N/A   Mostly Cloudy
4:15 AM 44.6 °F 38.1 °F 35.6 °F 71% 29.55 in 10.0 mi SW 13.8 mph 26.5 mph N/A   Mostly Cloudy
4:35 AM 42.8 °F 38.0 °F 33.8 °F 70% 29.57 in 10.0 mi WSW 8.1 mph 23.0 mph N/A   Mostly Cloudy
4:55 AM 41.0 °F 33.5 °F 33.8 °F 76% 29.60 in 10.0 mi WSW 13.8 mph 29.9 mph N/A   Mostly Cloudy
5:15 AM 39.2 °F 30.5 °F 30.2 °F 70% 29.62 in 10.0 mi WSW 16.1 mph 25.3 mph N/A   Overcast
5:35 AM 37.4 °F 28.2 °F 30.2 °F 75% 29.64 in 10.0 mi WSW 16.1 mph 31.1 mph N/A   Overcast
5:55 AM 35.6 °F 28.0 °F 30.2 °F 81% 29.66 in 10.0 mi WSW 10.4 mph 24.2 mph N/A   Overcast
6:15 AM 33.8 °F 24.3 °F 28.4 °F 81% 29.68 in 10.0 mi WSW 13.8 mph 28.8 mph N/A   Overcast
6:35 AM 32.0 °F 23.0 °F 28.4 °F 87% 29.70 in 10.0 mi WSW 11.5 mph 28.8 mph N/A   Overcast
6:55 AM 32.0 °F 22.1 °F 26.6 °F 80% 29.73 in 10.0 mi WSW 13.8 mph 19.6 mph N/A   Overcast
7:15 AM 30.2 °F 19.3 °F 23.0 °F 75% 29.74 in 10.0 mi West 15.0 mph 25.3 mph N/A   Overcast
7:35 AM 30.2 °F 18.5 °F 23.0 °F 75% 29.76 in 10.0 mi WSW 17.3 mph 25.3 mph N/A   Overcast
7:55 AM 30.2 °F 20.2 °F 21.2 °F 69% 29.78 in 10.0 mi WSW 12.7 mph 24.2 mph N/A   Overcast
8:15 AM 30.2 °F 20.8 °F 23.0 °F 75% 29.79 in 10.0 mi WSW 11.5 mph 21.9 mph N/A   Overcast
8:35 AM 28.4 °F 19.1 °F 21.2 °F 74% 29.81 in 10.0 mi WSW 10.4 mph 18.4 mph N/A   Overcast
8:55 AM 28.4 °F 16.2 °F 19.4 °F 69% 29.82 in 10.0 mi WSW 17.3 mph 24.2 mph N/A   Mostly Cloudy
9:15 AM 26.6 °F 16.2 °F 19.4 °F 74% 29.82 in 10.0 mi WSW 11.5 mph 23.0 mph N/A   Mostly Cloudy
9:35 AM 26.6 °F 16.2 °F 19.4 °F 74% 29.83 in 10.0 mi WSW 11.5 mph 24.2 mph N/A   Mostly Cloudy
9:55 AM 26.6 °F 15.2 °F 19.4 °F 74% 29.85 in 10.0 mi WSW 13.8 mph 25.3 mph N/A   Mostly Cloudy
10:15 AM 26.6 °F 14.7 °F 17.6 °F 69% 29.86 in 10.0 mi WSW 15.0 mph 21.9 mph N/A   Mostly Cloudy
10:35 AM 26.6 °F 15.7 °F 15.8 °F 64% 29.88 in 10.0 mi WSW 12.7 mph 23.0 mph N/A   Mostly Cloudy
10:55 AM 24.8 °F 14.0 °F 15.8 °F 69% 29.90 in 10.0 mi WSW 11.5 mph 19.6 mph N/A   Mostly Cloudy
11:15 AM 24.8 °F 13.4 °F 15.8 °F 69% 29.90 in 10.0 mi West 12.7 mph 23.0 mph N/A   Mostly Cloudy
11:55 AM 23.0 °F 11.1 °F 14.0 °F 68% 29.90 in 10.0 mi West 12.7 mph 21.9 mph N/A   Mostly Cloudy
12:15 PM 23.0 °F 12.4 °F 14.0 °F 68% 29.90 in 10.0 mi SW 10.4 mph 17.3 mph N/A   Mostly Cloudy
12:35 PM 23.0 °F 10.6 °F 14.0 °F 68% 29.89 in 10.0 mi West 13.8 mph 23.0 mph N/A   Scattered Clouds
12:55 PM 24.8 °F 15.3 °F 14.0 °F 64% 29.90 in 10.0 mi West 9.2 mph 18.4 mph N/A   Clear
1:15 PM 23.0 °F 12.4 °F 14.0 °F 68% 29.91 in 10.0 mi West 10.4 mph 20.7 mph N/A   Clear
1:35 PM 23.0 °F 11.7 °F 12.2 °F 63% 29.92 in 10.0 mi West 11.5 mph 23.0 mph N/A   Clear
1:55 PM 23.0 °F 14.7 °F 12.2 °F 63% 29.94 in 10.0 mi WSW 6.9 mph 17.3 mph N/A   Scattered Clouds
2:15 PM 23.0 °F 11.7 °F 12.2 °F 63% 29.95 in 10.0 mi WSW 11.5 mph 17.3 mph N/A   Scattered Clouds
2:35 PM 23.0 °F 11.1 °F 12.2 °F 63% 29.95 in 10.0 mi WSW 12.7 mph 18.4 mph N/A   Scattered Clouds
2:55 PM 23.0 °F 13.1 °F 12.2 °F 63% 29.94 in 10.0 mi West 9.2 mph 16.1 mph N/A   Clear
3:15 PM 23.0 °F 12.4 °F 12.2 °F 63% 29.94 in 10.0 mi WSW 10.4 mph - N/A   Scattered Clouds
3:35 PM 21.2 °F 10.9 °F 12.2 °F 68% 29.95 in 10.0 mi West 9.2 mph - N/A   Scattered Clouds
3:55 PM 21.2 °F 9.5 °F 12.2 °F 68% 29.97 in 10.0 mi West 11.5 mph 16.1 mph N/A   Clear
4:15 PM 21.2 °F 10.1 °F 12.2 °F 68% 29.99 in 10.0 mi WSW 10.4 mph - N/A   Scattered Clouds
4:35 PM 21.2 °F 11.7 °F 12.2 °F 68% 29.99 in 10.0 mi West 8.1 mph - N/A   Overcast
4:55 PM 21.2 °F 10.9 °F 12.2 °F 68% 29.99 in 10.0 mi West 9.2 mph - N/A   Mostly Cloudy
5:15 PM 21.2 °F 12.6 °F 12.2 °F 68% 29.98 in 10.0 mi West 6.9 mph - N/A   Mostly Cloudy
5:35 PM 21.2 °F 13.6 °F 12.2 °F 68% 29.98 in 10.0 mi West 5.8 mph - N/A   Overcast
5:55 PM 21.2 °F 10.9 °F 12.2 °F 68% 29.99 in 10.0 mi West 9.2 mph - N/A   Overcast
6:15 PM 21.2 °F 9.5 °F 12.2 °F 68% 29.99 in 10.0 mi West 11.5 mph 16.1 mph N/A Snow Light Snow
6:35 PM 19.4 °F 9.5 °F 10.4 °F 68% 29.98 in 10.0 mi West 8.1 mph 16.1 mph N/A   Mostly Cloudy
6:55 PM 19.4 °F 8.6 °F 10.4 °F 68% 29.99 in 10.0 mi West 9.2 mph - N/A   Mostly Cloudy
7:15 PM 19.4 °F 7.9 °F 12.2 °F 74% 29.99 in 10.0 mi West 10.4 mph - N/A   Mostly Cloudy
7:35 PM 19.4 °F 10.4 °F 10.4 °F 68% 30.01 in 10.0 mi West 6.9 mph - N/A   Mostly Cloudy
7:55 PM 19.4 °F 8.6 °F 10.4 °F 68% 30.01 in 10.0 mi WNW 9.2 mph - N/A   Overcast
8:15 PM 19.4 °F 8.6 °F 10.4 °F 68% 30.01 in 10.0 mi West 9.2 mph - N/A   Mostly Cloudy
8:35 PM 19.4 °F 9.5 °F 10.4 °F 68% 30.03 in 10.0 mi West 8.1 mph - N/A   Mostly Cloudy
8:55 PM 19.4 °F 8.6 °F 8.6 °F 63% 30.02 in 10.0 mi West 9.2 mph 16.1 mph N/A   Mostly Cloudy
9:15 PM 19.4 °F 7.2 °F 10.4 °F 68% 30.02 in 10.0 mi West 11.5 mph 16.1 mph N/A   Mostly Cloudy
9:35 PM 17.6 °F 7.3 °F 8.6 °F 68% 30.01 in 10.0 mi WNW 8.1 mph - N/A   Mostly Cloudy
9:55 PM 17.6 °F 5.7 °F 8.6 °F 68% 30.03 in 10.0 mi WNW 10.4 mph - N/A   Mostly Cloudy
10:15 PM 17.6 °F 6.4 °F 8.6 °F 68% 30.02 in 10.0 mi WNW 9.2 mph 16.1 mph N/A   Mostly Cloudy
10:35 PM 17.6 °F 6.4 °F 6.8 °F 63% 30.02 in 10.0 mi WNW 9.2 mph - N/A   Scattered Clouds
10:55 PM 17.6 °F 9.3 °F 8.6 °F 68% 30.01 in 10.0 mi West 5.8 mph - N/A   Scattered Clouds
11:15 PM 17.6 °F 5.7 °F 8.6 °F 68% 30.01 in 10.0 mi WNW 10.4 mph - N/A   Scattered Clouds
11:35 PM 15.8 °F 5.1 °F 6.8 °F 68% 30.00 in 10.0 mi WNW 8.1 mph - N/A   Scattered Clouds
11:55 PM 15.8 °F 5.1 °F 6.8 °F 68% 30.01 in 10.0 mi WNW 8.1 mph - N/A   Scattered Clouds